Theta_e
339 338 338 337 337 338 341 343 343 343 342 340 340 342 343 343 343 343 343 341 341 341 341 340 341 342 341 340 340 340 335 327 324 323 324 326 328 331 332 334 335 335 336 335 334 334 334 334 334 335 335 336 336 337 337 337 338 337 336 336 335 335 334 334 334 334 334 334 334 333 333 332 331 333 339 342 340 340 343 342 339 335 332 332 331
338 337 337 337 339 342 344 344 344 344 344 343 343 342 341 342 343 343 343 342 342 342 342 341 342 342 343 342 342 341 337 332 328 326 328 331 332 334 334 334 334 334 334 333 333 333 333 333 333 333 333 333 334 334 335 335 335 335 334 334 332 332 331 331 331 332 332 332 331 331 331 331 331 334 340 340 336 337 339 335 332 331 330 332 332
337 336 336 338 340 343 344 344 345 344 344 344 343 341 341 342 342 342 343 343 343 343 342 342 342 342 343 343 343 342 341 341 336 329 331 334 334 334 334 333 333 333 333 333 333 333 332 332 332 332 332 332 332 332 333 333 333 332 331 331 330 329 329 329 329 330 330 331 331 331 331 331 332 333 335 335 333 335 335 333 333 336 337 338 338
336 336 337 339 340 342 343 344 345 345 344 344 343 343 343 343 344 344 344 344 343 343 342 342 343 343 342 343 343 342 342 344 342 334 333 335 334 333 333 333 332 333 335 337 337 335 332 329 329 329 329 329 329 330 330 329 329 328 328 328 328 328 328 329 330 331 332 333 334 334 333 333 334 335 335 334 335 336 336 338 340 340 341 341 341
337 337 338 340 342 343 345 345 345 345 345 344 343 344 344 345 345 345 344 344 344 343 342 342 342 342 342 342 342 342 342 343 343 340 338 338 336 334 333 332 331 332 337 340 341 339 334 328 326 325 325 325 325 326 326 326 326 326 327 328 328 329 330 331 331 332 334 335 336 336 335 336 336 337 336 335 336 337 339 341 340 339 340 341 342
338 338 339 341 344 345 346 345 345 345 346 345 344 345 345 345 345 344 344 344 344 343 342 342 342 342 342 342 342 342 342 342 343 342 342 342 340 337 335 335 333 333 335 337 339 338 334 330 327 326 325 325 325 325 325 326 327 328 329 330 330 331 331 332 332 333 334 336 336 337 338 339 339 340 339 338 338 339 340 338 337 336 338 341 342
338 338 340 342 343 345 345 345 345 345 345 345 345 345 345 345 344 344 344 344 344 343 343 343 341 341 342 342 342 342 343 343 343 342 343 344 343 340 339 339 339 337 334 332 333 333 332 331 331 329 328 328 328 328 329 330 331 331 331 332 332 333 333 334 336 337 338 338 338 339 339 340 341 343 343 342 341 341 342 341 339 336 336 339 341
339 340 341 341 343 344 345 344 343 344 345 345 345 345 344 344 344 344 344 343 343 342 342 342 341 341 342 342 342 342 342 343 343 343 343 344 344 341 341 342 342 341 337 332 331 331 329 329 330 330 330 330 331 331 331 331 332 332 333 335 336 337 339 340 341 341 341 341 342 341 341 342 343 344 345 346 346 346 346 346 344 340 338 339 341
342 343 343 344 345 345 345 344 342 343 345 345 344 344 343 344 343 344 344 343 344 342 340 342 341 340 342 342 342 342 342 342 343 343 343 344 345 343 343 343 342 341 338 334 332 332 330 330 330 330 330 331 332 332 332 333 334 336 338 339 341 342 343 344 344 344 344 343 343 344 343 344 345 345 346 347 348 349 348 348 347 344 343 343 343
345 345 345 345 345 344 345 345 344 344 345 345 344 343 343 343 343 343 343 343 343 342 340 341 342 341 342 343 342 343 342 341 342 343 343 343 344 344 344 343 342 341 339 337 336 335 335 333 331 331 331 332 333 334 335 337 339 340 342 343 343 344 345 346 346 346 346 346 346 346 345 345 346 347 348 348 349 349 349 349 348 348 347 346 346
346 346 345 344 343 343 343 345 346 346 346 344 343 343 343 343 342 343 344 344 343 342 341 341 342 341 343 343 342 342 340 340 342 343 343 343 343 344 344 343 342 341 341 341 340 340 339 337 335 333 333 334 335 336 338 340 341 342 343 344 344 346 347 347 347 348 349 350 350 349 348 346 346 346 347 348 349 349 349 348 348 348 348 347 347
346 346 345 343 342 342 342 344 346 346 346 345 343 343 343 342 343 344 344 345 344 343 341 341 341 341 341 340 340 340 340 340 342 343 343 343 343 343 343 343 342 342 341 341 342 342 342 341 340 338 336 336 336 338 340 340 341 342 342 344 345 346 348 348 347 348 349 350 351 351 350 348 346 345 346 347 347 349 349 348 348 348 348 348 347
346 345 344 343 344 343 342 344 346 346 346 346 344 344 343 342 343 345 345 345 344 342 341 341 341 340 339 338 338 340 341 341 342 343 343 343 343 343 344 343 342 342 342 341 341 342 342 342 342 341 339 339 338 340 341 341 342 342 342 343 344 345 347 348 348 348 349 350 351 352 351 348 346 345 344 345 345 346 347 347 347 348 348 348 348
346 344 342 342 343 344 343 343 345 346 346 346 345 344 343 343 345 345 345 345 343 341 340 340 340 340 339 338 338 340 340 341 342 343 343 342 342 343 343 343 342 342 343 342 341 341 342 342 342 342 342 342 341 342 343 343 343 342 343 343 343 344 345 347 348 349 349 349 350 351 351 348 345 343 342 342 343 344 345 346 346 347 348 349 349
345 344 343 342 341 342 341 342 345 346 345 345 344 343 343 344 345 346 345 345 343 341 340 341 340 339 340 340 339 340 341 342 342 343 343 343 343 342 342 343 343 342 342 342 341 341 341 341 342 342 342 343 342 342 344 345 344 344 344 343 343 345 346 347 348 349 350 349 350 350 350 348 345 342 339 338 339 341 343 344 345 346 347 349 349
346 345 344 342 340 341 341 343 345 345 345 344 343 343 344 344 345 346 345 344 344 343 342 342 340 339 339 340 341 341 341 342 342 342 342 341 341 341 341 342 343 342 342 342 342 341 341 341 341 342 342 343 343 343 344 346 346 347 346 344 345 347 348 348 348 349 350 349 348 349 349 348 346 343 340 337 336 337 339 340 342 343 345 347 348
346 345 343 340 340 341 342 342 344 344 344 343 343 344 345 345 346 345 345 345 345 345 345 344 341 339 340 341 342 341 342 342 342 341 340 339 340 340 340 341 342 342 342 342 342 342 341 341 341 341 342 343 343 344 345 347 347 347 346 346 348 349 349 349 350 350 349 347 346 347 347 346 347 346 342 340 337 335 335 335 337 338 340 342 344
344 344 342 340 340 342 342 342 343 343 343 343 342 343 344 345 345 345 346 345 346 346 346 344 342 341 341 343 342 341 342 343 341 341 340 339 339 340 340 340 341 342 342 343 342 342 342 340 340 341 342 343 343 344 346 347 347 347 347 348 349 349 349 349 350 350 347 345 345 345 346 346 347 347 344 342 339 338 338 336 335 335 335 337 340
342 343 342 340 341 342 342 342 342 342 342 342 342 343 345 345 345 345 346 346 346 346 345 345 345 344 344 344 343 342 343 344 343 342 341 340 340 340 340 340 341 342 342 342 342 342 342 341 341 341 342 342 343 345 346 347 348 347 347 348 349 348 349 349 349 348 346 345 345 345 346 346 347 347 346 343 341 341 342 341 339 337 335 334 336
342 343 342 342 341 342 342 342 342 341 342 343 343 344 345 346 345 345 346 346 346 346 345 346 346 346 346 345 344 343 344 345 344 343 342 341 341 341 341 341 341 342 342 343 343 343 343 342 343 343 343 343 343 345 347 348 348 348 348 349 349 349 348 348 349 347 345 345 346 346 347 347 347 348 347 345 342 342 343 343 344 342 340 337 335
342 343 343 342 342 342 341 341 342 341 342 344 344 345 346 346 346 346 345 346 347 347 347 347 346 346 345 344 345 345 345 346 345 344 343 342 342 342 341 341 341 342 343 343 343 343 343 343 343 344 343 343 344 346 347 348 349 349 349 349 348 348 348 348 347 346 345 346 346 346 345 345 345 345 346 345 343 343 343 343 345 345 344 342 340
341 342 342 342 342 343 342 341 342 342 343 345 344 345 345 345 345 346 345 346 347 347 347 347 347 346 345 345 346 346 346 346 345 345 345 343 343 342 342 342 342 341 342 343 344 344 345 344 343 344 344 343 344 347 348 348 349 349 350 349 348 348 348 346 345 345 345 346 345 344 343 342 343 341 341 341 341 343 343 343 344 345 345 346 346
340 341 342 341 342 343 343 342 342 342 343 344 345 345 344 343 344 345 345 345 347 347 347 348 347 345 345 346 347 347 347 346 346 346 346 345 344 344 343 343 342 342 342 343 343 344 345 345 345 344 344 344 345 348 348 348 348 348 349 349 348 348 347 344 344 345 345 344 343 342 341 341 340 339 339 339 341 343 344 343 343 344 345 346 347
341 342 342 342 342 343 342 342 343 343 343 343 345 345 345 343 342 343 344 345 346 347 347 348 348 345 345 346 348 348 347 347 347 346 346 346 345 345 346 345 345 345 344 344 343 344 344 345 345 345 345 344 346 348 348 348 349 349 349 349 348 349 346 343 344 345 344 343 341 341 342 341 341 342 342 341 341 343 344 343 343 343 343 344 345
341 341 342 342 342 342 342 342 344 345 344 344 344 345 345 343 342 342 342 343 345 346 345 347 347 345 345 346 348 348 348 348 348 347 347 346 346 347 347 347 347 347 346 345 344 343 343 343 343 345 345 345 347 348 348 348 349 349 349 349 348 348 346 343 344 344 344 342 342 342 343 342 343 345 345 345 343 343 345 345 346 345 344 344 344
340 341 342 342 341 342 342 341 343 345 346 345 344 346 346 344 342 342 341 341 343 344 343 344 345 344 345 346 347 348 348 348 348 348 347 347 347 347 347 348 347 347 346 344 344 343 342 342 344 346 346 346 347 348 348 348 348 349 349 348 346 346 345 343 343 343 343 343 343 343 344 344 346 347 346 346 345 344 346 348 348 348 347 346 345
340 341 342 342 341 341 342 341 341 344 346 346 345 346 346 344 343 342 341 340 340 341 341 341 343 343 343 346 347 348 348 348 348 348 348 348 348 348 348 348 348 347 346 344 344 345 344 343 344 345 347 347 348 348 347 347 347 347 345 342 342 343 342 341 342 343 344 344 344 344 345 345 345 345 345 345 344 344 346 348 349 350 350 350 349
341 341 341 342 341 341 342 341 341 342 345 346 345 346 346 345 345 343 342 341 341 341 339 339 341 342 343 345 345 347 347 348 348 348 348 348 348 348 348 349 350 348 347 346 346 347 347 346 344 344 345 345 344 344 343 343 342 340 339 338 340 341 341 342 344 345 345 343 342 342 343 343 342 343 344 344 344 345 347 348 350 351 350 350 351
343 342 342 342 341 341 341 341 341 341 344 345 344 345 345 346 346 344 343 342 342 342 341 340 340 341 344 346 345 346 346 347 348 347 348 348 348 349 350 350 350 350 350 350 349 349 349 349 347 344 341 339 338 338 338 339 339 338 338 339 341 341 342 344 345 346 345 342 341 341 342 341 342 342 343 344 345 347 349 350 351 351 349 349 352
344 343 343 343 342 341 341 341 340 341 343 343 343 344 344 344 345 345 343 343 343 343 342 342 341 342 345 346 346 347 347 347 348 347 348 349 349 350 351 350 350 351 352 352 351 351 350 349 347 342 338 336 336 337 338 340 341 340 340 341 341 342 342 344 344 345 344 342 342 343 342 342 341 342 342 343 344 345 347 348 349 349 350 350 351
345 344 344 345 343 341 342 341 339 339 341 342 342 342 342 342 343 343 342 342 343 343 344 344 343 343 345 346 346 348 348 349 349 349 349 351 352 351 351 351 351 350 351 352 352 351 350 349 346 342 339 336 335 336 338 338 339 339 340 341 341 342 342 343 343 344 344 343 343 344 342 341 340 341 343 343 343 344 344 346 347 348 351 351 349
346 345 345 346 345 344 344 343 341 340 340 341 342 342 342 341 341 342 342 342 342 343 344 344 343 343 343 345 346 347 347 349 350 349 349 350 351 351 351 352 351 350 351 351 352 351 349 347 343 341 339 334 331 333 332 330 333 337 340 341 342 342 342 342 343 343 344 344 343 343 341 341 342 343 344 344 344 345 345 346 347 348 351 351 349
346 346 345 346 346 346 346 346 345 343 341 341 342 342 342 340 340 341 342 343 343 342 343 344 344 344 343 343 343 344 345 347 348 346 346 345 345 347 350 352 351 350 351 351 351 350 348 345 341 338 336 332 329 331 330 329 334 338 341 343 343 342 342 343 344 344 344 343 342 342 342 343 344 345 346 348 348 349 349 348 349 350 351 351 350
347 348 347 346 347 346 346 347 347 345 344 343 342 342 342 341 340 340 342 343 344 343 345 347 347 346 345 343 343 344 345 346 345 344 344 344 345 347 350 351 350 349 350 350 351 350 347 345 340 335 334 332 330 332 333 334 338 341 342 343 342 341 342 343 344 344 343 343 342 344 345 345 346 347 350 351 352 353 352 351 351 352 352 352 351
348 350 349 347 347 346 346 347 346 346 345 344 343 343 342 342 341 341 341 343 343 343 346 348 348 346 345 343 342 343 344 344 345 345 346 347 349 350 351 350 349 349 350 350 349 348 347 342 337 334 334 333 331 333 336 337 340 341 341 341 340 340 341 341 342 342 343 343 344 346 347 346 347 350 352 353 354 354 353 353 353 353 353 352 352
348 349 349 348 348 348 348 347 347 345 344 344 344 344 343 342 342 342 342 343 343 343 345 346 346 347 345 343 343 343 344 344 344 345 345 346 347 348 350 349 349 348 347 346 346 345 343 340 337 336 336 336 335 335 336 338 339 339 339 339 338 339 340 341 342 344 344 345 346 347 347 346 348 350 352 353 354 354 354 354 354 353 353 352 352
348 349 350 350 350 350 350 349 348 346 344 343 344 345 346 345 345 345 344 344 344 343 344 345 347 349 348 345 344 344 344 344 344 345 345 345 345 345 346 346 346 345 344 343 343 343 342 341 341 340 340 340 337 336 338 339 339 339 339 339 340 341 343 344 345 345 345 346 346 347 347 346 348 350 352 353 353 354 354 354 353 353 353 352 352
348 349 350 351 351 350 349 349 349 349 346 345 345 347 349 348 348 348 347 346 346 345 345 346 347 348 348 345 344 345 345 345 346 346 346 346 346 345 344 343 343 343 343 343 343 343 343 343 343 343 343 341 338 337 340 341 341 342 342 342 343 345 345 344 344 345 346 347 347 348 348 347 348 350 351 352 353 353 353 353 353 354 354 353 353
350 350 350 350 350 350 349 349 350 350 349 349 349 349 350 350 350 349 348 348 349 349 348 347 346 347 347 346 346 347 348 349 348 347 346 346 346 346 345 344 343 343 343 343 343 344 344 344 345 345 343 341 340 340 341 342 344 345 346 345 343 344 345 344 344 345 347 347 348 348 348 348 348 350 351 351 351 352 353 353 354 354 353 352 351
352 352 351 351 351 350 351 350 350 351 352 351 351 350 349 350 350 350 349 349 349 349 349 349 349 350 349 348 348 349 350 349 349 347 346 345 345 345 345 345 345 345 344 344 344 344 345 346 346 345 344 342 342 342 343 344 345 346 346 346 345 344 345 345 346 347 348 348 348 348 348 349 349 349 350 350 350 352 352 353 353 352 350 349 348
352 352 352 352 352 352 352 351 351 351 352 352 351 350 350 349 349 349 348 347 348 348 350 352 352 352 351 350 350 350 350 350 349 348 347 345 344 344 343 343 344 345 346 345 345 345 346 346 346 344 343 343 344 344 345 345 346 346 346 347 347 346 345 346 347 348 349 348 348 348 349 349 349 349 350 350 350 351 350 350 350 350 349 349 349
351 352 352 352 352 352 352 352 352 352 352 352 352 352 351 350 350 350 349 347 347 348 350 352 353 353 352 351 350 350 350 350 349 348 348 347 346 345 344 343 343 344 345 346 346 347 347 347 346 344 343 344 346 347 347 348 348 347 347 347 347 346 346 346 347 348 349 349 348 348 349 350 349 349 349 349 349 349 349 350 350 350 350 350 349
351 351 352 352 352 352 352 353 353 352 352 352 352 353 352 351 351 351 351 349 349 349 349 351 353 353 352 351 351 350 350 350 350 349 348 347 346 345 344 344 343 343 344 345 346 346 347 347 346 345 345 346 347 349 349 349 349 348 347 347 347 348 348 348 348 349 349 348 348 348 349 350 349 349 349 348 348 348 350 351 350 350 350 350 351
351 351 350 351 350 351 352 353 352 352 352 352 352 352 352 351 351 352 352 351 350 350 350 350 352 353 352 351 351 351 350 350 349 349 348 347 346 346 346 346 345 345 345 345 345 345 346 346 346 347 348 349 349 350 351 349 348 347 346 347 348 349 350 350 349 349 349 348 348 348 349 349 349 348 348 347 347 349 350 350 350 350 351 352 352
350 350 349 349 349 349 351 352 352 351 350 349 350 351 350 350 351 351 352 351 351 350 348 348 350 351 352 351 350 349 349 349 349 348 346 346 346 346 346 346 346 345 345 345 345 345 345 346 347 349 350 350 350 351 350 348 347 346 347 348 349 350 350 350 349 349 349 348 347 347 348 348 347 347 345 343 345 349 348 348 349 350 350 351 352
348 348 348 348 348 348 349 350 351 350 348 348 348 348 348 348 349 350 350 350 349 349 347 347 347 348 349 349 348 348 347 346 346 346 345 344 345 345 346 345 345 345 344 343 343 343 345 346 347 349 351 351 351 350 349 348 347 347 348 349 349 350 349 348 349 349 347 346 345 345 346 346 344 343 340 338 342 346 344 344 348 351 349 348 348
348 347 346 346 346 346 347 348 349 349 347 346 346 346 345 345 346 347 347 347 347 347 347 347 347 347 347 347 348 348 347 347 346 345 344 343 343 342 342 343 342 341 341 341 341 343 345 346 346 348 349 350 349 348 347 348 348 348 348 349 348 349 348 347 349 348 343 342 343 343 343 342 339 337 335 333 337 342 339 334 337 344 345 345 345
348 347 346 345 345 346 347 347 347 347 347 346 345 345 345 345 344 345 344 344 344 344 345 346 347 347 347 347 348 349 349 348 347 345 345 344 342 339 338 338 338 339 339 341 342 343 344 345 346 346 347 348 348 347 347 348 348 348 349 348 348 348 347 347 347 342 337 339 341 341 340 338 333 329 329 329 331 337 336 329 327 329 331 336 340
349 349 347 346 345 345 347 348 347 347 347 347 346 345 345 345 345 345 344 343 343 342 343 345 345 346 347 347 348 349 349 349 348 346 345 345 343 339 338 338 339 341 343 344 345 346 346 346 346 347 347 347 347 347 347 348 348 348 347 347 347 346 345 343 339 333 333 337 339 337 336 333 326 322 324 325 325 329 332 331 328 323 318 320 326
350 350 349 349 348 346 346 348 348 347 347 347 346 346 346 345 346 346 345 345 345 343 343 343 344 344 345 346 348 349 350 349 348 347 346 346 345 343 342 343 344 345 346 347 347 347 347 347 348 347 347 346 346 346 347 347 347 347 346 346 344 340 336 333 330 329 333 337 335 330 329 326 321 319 320 320 321 325 329 330 328 321 313 311 314
350 351 350 349 349 350 349 349 348 348 347 347 347 347 347 346 346 346 346 347 347 347 346 346 345 344 344 346 347 348 349 349 348 347 347 346 345 346 347 347 347 347 347 347 347 347 347 347 345 344 343 344 344 345 346 346 345 345 345 343 339 333 328 328 329 329 332 333 328 324 324 322 319 319 320 318 321 324 327 328 326 317 310 310 311
Wind_Speed
16 17 17 17 16 16 16 16 16 15 16 15 14 12 11 10 8 7 6 6 7 7 6 6 6 6 8 9 10 10 11 12 12 12 11 11 11 11 11 10 10 10 11 11 11 11 10 10 10 9 8 7 7 7 6 6 6 6 6 6 6 6 7 7 8 8 9 9 10 10 10 11 12 12 11 11 9 7 7 9 9 10 11 11 10
16 17 17 17 16 16 16 15 15 14 13 13 13 12 11 10 8 7 6 5 5 5 5 5 5 6 7 8 9 10 12 12 12 11 12 11 11 11 10 10 10 11 11 12 12 12 11 11 10 9 8 7 7 6 6 6 6 6 6 6 6 7 7 8 9 9 10 10 11 11 11 12 12 12 10 10 8 7 7 8 8 7 8 9 10
16 17 18 17 16 16 15 14 13 12 12 12 12 12 11 10 8 6 5 5 4 3 3 4 4 5 6 7 7 9 10 11 11 10 11 11 10 10 10 11 12 13 13 13 13 13 12 12 11 10 9 8 8 7 7 6 6 6 6 6 7 7 8 9 9 10 11 11 11 11 12 12 12 11 10 10 9 9 9 8 8 7 7 8 9
16 17 16 15 15 14 13 12 11 12 12 12 12 12 10 8 5 4 3 2 2 2 2 3 4 4 5 6 6 7 7 8 9 9 9 9 9 9 11 12 12 13 14 14 14 14 14 14 13 12 11 10 9 8 8 7 7 7 7 7 8 8 9 9 10 11 11 11 11 11 11 11 11 11 10 10 10 10 10 9 8 7 7 8 8
15 15 14 14 14 13 12 12 11 11 12 12 12 10 8 6 4 2 1 1 1 1 2 3 4 3 4 5 5 5 5 6 7 8 8 7 8 9 10 11 11 12 13 13 14 14 15 15 15 14 13 12 10 9 9 8 8 8 8 9 9 9 9 10 10 11 11 11 11 11 11 10 10 10 10 10 10 10 10 9 8 8 8 8 8
14 13 13 14 13 12 11 11 10 11 11 11 11 9 7 5 4 3 1 1 2 1 2 4 5 4 3 4 4 4 4 5 5 6 8 7 7 8 9 10 9 10 10 11 12 13 14 14 14 14 13 12 11 10 9 9 9 9 9 9 9 9 10 11 12 13 13 12 12 12 11 11 10 10 10 10 9 9 10 11 10 9 8 8 9
14 14 13 13 11 10 10 9 10 10 11 11 10 8 6 5 5 3 2 2 3 3 3 5 6 6 3 3 3 3 3 3 4 4 6 7 7 7 9 9 9 8 8 9 10 12 12 13 13 12 12 11 10 10 9 9 9 9 9 9 10 10 11 12 13 14 14 14 14 14 13 12 11 11 11 10 9 9 11 12 12 10 9 9 10
14 13 13 11 10 9 9 9 10 10 10 10 9 8 6 6 5 4 3 2 2 4 3 5 6 5 3 3 3 3 2 3 3 4 4 6 7 7 7 8 8 7 7 7 9 10 11 11 11 11 10 10 9 9 9 9 9 10 10 10 11 11 12 13 14 15 15 15 15 15 15 14 13 12 11 10 9 10 10 12 13 12 9 9 10
13 12 11 10 8 8 9 10 10 9 8 9 9 8 7 6 5 3 2 2 1 3 4 3 5 4 3 3 3 2 3 3 3 3 3 4 5 6 6 6 8 8 7 6 7 8 9 9 9 9 9 9 9 9 9 10 10 11 11 11 11 12 13 13 14 15 16 16 16 16 16 16 15 14 13 12 11 11 11 11 12 12 11 11 11
12 11 9 9 9 9 10 10 9 8 8 9 9 9 8 7 5 3 2 1 1 3 4 4 4 4 3 3 2 2 3 3 2 1 2 3 3 4 5 5 6 8 8 8 7 8 8 9 9 9 9 9 9 9 9 10 10 11 11 11 11 13 13 14 14 15 16 16 17 17 17 17 16 16 15 14 13 13 13 12 11 11 12 13 14
11 10 10 9 10 10 9 9 8 8 7 7 9 10 8 7 5 4 2 1 2 3 4 4 5 5 4 2 2 4 5 3 1 1 1 2 2 2 3 4 5 6 8 9 9 9 9 8 8 8 8 8 9 9 9 9 10 11 11 11 12 13 14 15 15 15 16 17 17 18 19 18 18 17 16 16 15 14 14 14 13 12 13 14 15
11 10 10 10 10 10 9 9 8 7 6 6 8 9 8 7 6 4 2 2 2 3 4 5 6 6 5 4 5 6 6 4 2 2 1 1 1 0 1 3 4 4 5 7 9 10 10 9 8 7 7 7 8 9 9 9 10 11 11 11 12 14 14 15 15 15 16 17 18 19 19 19 19 18 18 17 16 16 15 14 14 14 14 14 14
11 11 10 10 10 10 10 9 8 7 5 5 7 8 8 8 6 3 2 2 2 1 3 6 7 5 5 4 5 5 5 5 5 4 3 2 2 2 2 1 3 4 4 5 7 8 9 10 9 8 8 8 9 10 11 11 11 12 12 11 12 14 14 15 16 16 16 17 18 19 20 20 20 19 18 18 17 16 16 15 15 14 14 15 15
11 10 10 10 10 10 10 9 8 6 5 5 6 7 8 9 6 3 2 3 3 3 4 6 6 4 3 3 3 3 4 6 7 6 5 5 5 4 3 2 1 2 3 4 6 7 8 9 9 9 8 9 10 11 13 13 12 12 13 12 12 13 15 15 16 16 16 17 18 19 20 20 20 19 19 18 17 17 16 15 15 15 15 15 16
10 9 9 9 9 9 9 8 7 6 5 6 6 7 9 9 6 3 3 4 3 4 4 4 4 2 1 2 2 3 4 5 6 7 8 9 8 6 5 4 2 1 1 3 5 6 7 8 8 8 8 9 10 11 14 14 13 13 13 12 12 13 15 15 16 16 16 17 17 18 18 19 19 19 19 19 18 17 16 15 15 15 15 15 16
9 8 8 9 8 8 8 7 6 5 6 6 6 7 9 9 6 3 4 4 4 4 3 3 3 3 1 2 3 4 4 5 6 6 7 8 8 7 5 5 4 4 2 3 4 6 7 8 8 8 7 8 9 11 14 15 14 14 14 12 11 13 14 15 15 15 16 16 16 16 16 17 18 18 19 19 19 18 16 16 16 15 15 16 16
9 8 8 8 8 7 7 7 6 6 6 6 6 7 9 8 6 3 3 4 4 4 2 2 4 4 3 2 3 4 5 6 5 4 6 6 6 6 5 5 4 5 3 3 5 6 8 10 10 8 7 8 9 11 14 15 14 15 14 11 11 13 14 15 16 16 17 15 14 13 14 15 16 17 19 19 19 19 18 17 16 16 16 16 16
10 9 8 8 8 7 7 7 7 7 7 6 7 8 8 8 6 4 3 3 4 4 4 3 3 4 3 2 2 2 5 6 4 3 5 4 3 5 5 4 3 3 4 4 5 7 9 10 10 8 7 8 8 10 14 14 14 14 12 11 12 14 15 15 17 18 17 14 13 13 13 14 15 16 18 18 18 19 19 19 18 17 17 16 16
11 10 9 9 8 7 7 7 7 7 7 7 7 8 8 8 7 5 4 3 3 4 4 3 2 2 2 0 0 1 4 6 5 3 4 4 2 3 3 4 4 4 6 7 6 7 9 9 8 7 6 7 8 10 13 13 13 13 12 13 14 14 15 16 17 18 16 14 14 14 15 16 16 16 17 17 17 17 18 19 19 18 18 17 17
12 11 10 9 9 8 7 8 8 7 7 7 7 7 8 8 8 6 5 4 3 3 4 3 2 3 2 1 0 1 3 6 7 5 5 4 3 3 2 0 1 2 4 4 4 5 8 8 7 7 6 6 6 10 13 13 14 14 13 14 14 15 15 16 17 16 15 15 16 17 18 18 18 17 17 16 15 16 16 17 18 19 18 18 17
12 11 10 10 9 9 8 9 8 7 7 7 7 7 7 8 8 7 5 4 3 3 4 3 3 3 3 2 0 1 2 5 6 6 5 4 4 4 4 3 3 2 2 3 4 6 8 7 5 6 6 6 5 9 14 15 14 14 13 13 13 14 15 16 17 16 15 16 17 18 18 19 18 17 15 15 14 14 15 16 16 18 18 19 19
12 11 11 10 10 9 9 9 8 8 7 7 7 7 7 9 9 8 7 5 4 4 4 4 3 3 3 2 1 0 1 3 5 6 6 4 3 3 3 2 1 2 2 4 7 9 9 7 6 6 6 5 6 10 13 13 13 13 12 11 12 13 15 17 17 16 17 17 17 17 19 19 18 16 14 13 12 13 15 15 16 17 18 19 20
12 12 12 11 11 9 9 9 8 8 8 7 8 8 8 9 9 9 9 8 6 5 5 5 5 4 3 1 0 1 2 3 4 5 6 5 4 4 4 5 5 6 5 6 9 10 9 8 7 7 7 5 5 9 11 11 12 12 11 11 13 15 16 16 16 17 18 17 17 18 19 19 17 16 15 14 12 12 14 16 16 17 17 18 20
13 13 13 12 11 10 10 10 9 9 9 9 9 8 8 9 9 10 10 10 8 7 7 7 7 6 5 2 1 1 2 3 4 4 5 6 7 6 6 7 7 8 9 9 11 11 11 11 9 9 8 3 3 7 9 10 11 11 12 13 15 16 16 15 15 18 18 17 18 19 18 17 16 16 16 15 13 12 14 17 17 18 18 18 19
13 14 13 12 11 11 11 10 9 9 10 10 9 9 8 8 9 10 10 11 11 10 9 8 8 8 7 4 2 1 1 2 3 3 4 5 7 7 8 9 9 10 11 11 12 12 11 11 10 10 8 5 5 6 8 9 11 12 13 15 16 16 15 14 14 17 18 19 19 19 18 17 16 17 18 17 15 13 14 17 17 18 18 17 18
12 12 12 12 12 11 11 11 11 10 11 11 11 9 9 9 9 10 10 10 11 12 11 10 9 8 8 6 5 4 3 2 3 3 4 5 6 8 9 10 11 12 12 12 12 11 9 8 7 8 6 6 6 7 9 12 14 15 16 17 16 15 14 14 15 16 18 18 18 18 18 18 17 18 20 20 16 14 16 18 18 17 17 17 16
12 11 11 12 12 11 12 12 12 12 12 12 11 10 9 9 10 9 9 9 11 11 12 12 10 9 9 8 7 6 6 5 4 4 5 6 6 7 9 11 12 13 13 12 10 9 9 8 6 6 7 7 8 10 13 15 16 16 16 16 14 13 14 14 14 14 15 16 16 17 18 18 19 20 21 20 17 15 17 19 18 17 18 18 17
12 12 12 12 12 12 13 13 13 13 12 12 11 10 9 9 9 8 8 9 10 10 11 11 11 10 10 10 9 9 8 8 7 6 6 7 7 8 9 10 11 12 13 12 11 10 10 10 8 6 7 8 9 11 12 12 13 13 13 12 11 12 12 11 11 12 14 15 16 17 18 19 19 19 20 18 17 16 17 18 18 18 19 19 17
13 12 12 13 13 13 13 13 13 12 12 12 11 10 9 9 8 8 8 9 9 9 9 9 10 10 10 10 10 10 10 9 9 8 8 8 8 9 8 8 9 11 12 12 13 11 10 11 11 9 7 7 8 8 8 9 9 10 10 10 10 10 9 9 10 12 14 15 16 18 20 21 20 20 20 18 17 17 18 17 17 19 20 17 14
13 13 13 13 13 14 14 13 13 12 11 12 10 10 10 9 9 9 9 9 9 8 8 8 9 10 10 11 11 10 11 10 9 9 8 7 8 8 8 8 8 10 11 11 12 12 11 12 12 11 9 7 7 7 7 7 8 9 10 10 10 10 11 11 12 14 15 16 18 20 23 23 23 24 24 21 19 19 19 19 19 19 17 13 10
14 14 14 14 13 14 14 14 13 12 11 11 10 11 11 10 10 10 10 9 9 8 8 8 9 9 10 11 11 11 11 11 10 10 9 8 8 9 9 9 9 9 9 10 11 11 11 13 12 9 8 7 7 8 7 7 8 10 11 12 12 13 13 13 15 16 16 17 19 22 25 26 26 26 26 23 21 20 19 19 16 12 10 9 8
15 15 15 14 13 13 14 15 13 12 11 11 12 11 11 11 11 10 10 10 10 9 8 9 9 9 10 10 11 11 11 11 10 10 10 10 11 11 11 10 9 8 8 9 11 11 10 12 11 8 8 8 10 11 11 9 9 9 10 11 12 12 13 14 15 16 16 18 21 24 26 26 27 26 24 22 20 19 18 15 10 7 8 9 8
15 15 15 15 14 13 13 13 13 12 12 12 13 12 12 12 12 11 11 11 11 10 9 10 9 9 10 10 10 10 10 10 10 9 9 10 11 12 12 11 8 7 7 8 11 12 11 12 11 8 9 11 13 14 13 12 10 8 8 9 11 12 13 14 14 15 17 19 22 25 25 26 25 23 20 18 17 17 15 11 7 7 9 10 11
15 15 15 14 14 13 13 13 13 13 13 13 13 14 13 12 12 12 12 12 11 10 9 9 9 9 10 10 9 8 8 8 8 7 8 8 9 10 11 10 8 6 7 8 9 12 13 14 11 9 11 14 15 15 15 13 11 10 10 10 11 12 14 15 15 16 18 21 23 24 24 24 22 18 15 15 15 14 12 9 8 9 10 11 13
15 15 15 14 13 13 13 13 13 14 13 13 13 14 13 12 12 12 12 12 11 10 10 10 9 9 9 9 9 7 7 8 8 8 8 8 8 8 8 8 8 7 7 9 10 12 15 15 13 12 14 16 16 16 15 13 12 13 13 13 13 14 15 16 17 18 20 21 22 23 23 22 19 14 13 14 14 12 11 9 10 10 10 11 13
15 15 15 14 13 13 14 14 14 14 14 13 13 13 13 12 12 12 13 13 12 11 11 11 10 9 8 8 8 8 7 7 6 6 6 6 6 7 7 8 8 8 7 8 10 12 13 14 14 15 16 17 17 17 15 14 14 14 15 16 16 16 17 17 17 19 21 22 22 22 22 21 17 12 11 13 12 11 11 11 11 11 11 11 13
15 15 14 14 13 14 14 14 14 14 14 13 13 13 12 12 12 12 12 12 11 11 11 10 10 9 8 7 7 7 7 5 4 3 5 5 6 6 7 7 8 8 8 9 10 11 12 14 15 16 17 19 18 16 15 17 17 16 17 17 16 17 17 17 18 20 22 22 22 23 22 20 16 11 10 12 12 12 12 12 12 12 12 12 13
16 15 15 14 14 14 14 14 13 13 13 13 13 13 12 11 11 11 12 12 11 11 10 10 10 9 8 6 5 5 5 5 5 6 7 8 8 8 8 7 7 8 8 9 10 11 13 14 16 17 18 19 18 17 16 17 18 19 19 18 16 17 19 20 22 23 23 23 22 23 23 20 15 11 10 10 11 12 13 13 13 13 13 14 15
16 16 15 15 15 14 14 13 13 11 10 11 13 13 13 12 11 11 12 12 12 11 11 10 10 9 8 6 7 6 6 7 8 9 9 9 10 10 10 9 9 9 9 9 10 12 13 15 16 17 18 18 18 18 17 17 18 19 20 20 19 20 23 25 26 25 25 23 23 24 23 19 14 11 9 9 10 12 13 14 14 14 15 16 16
17 16 15 15 15 14 14 14 14 12 10 11 12 13 13 13 13 13 13 13 14 13 12 11 10 9 9 8 8 8 9 10 10 9 9 9 9 9 9 10 11 12 11 11 11 12 14 15 16 17 18 18 17 17 17 17 19 19 20 21 23 24 25 26 26 26 25 24 24 24 22 18 14 11 10 10 10 11 12 13 14 15 16 16 17
17 16 15 15 15 15 14 14 15 14 13 13 13 13 14 14 14 14 14 14 15 15 14 12 11 11 11 11 11 11 11 12 12 12 12 11 11 11 10 11 12 13 13 13 14 14 15 17 18 18 19 18 17 17 18 19 21 22 21 22 24 25 27 27 25 24 25 26 26 24 20 18 16 14 13 12 12 12 13 13 14 15 15 15 14
17 17 17 17 16 16 16 15 15 15 15 15 14 14 14 15 15 15 14 14 14 15 14 13 12 12 13 14 14 14 14 14 14 15 14 13 13 12 12 12 13 13 14 15 16 17 18 19 19 19 20 19 18 18 20 21 21 22 22 23 25 26 27 27 25 24 24 25 26 22 19 17 16 15 14 13 13 13 13 12 12 13 13 12 12
17 17 18 18 18 18 17 17 16 16 16 16 16 15 16 16 16 15 15 15 15 15 15 15 14 14 14 15 15 15 16 16 17 17 16 15 14 14 14 14 13 13 14 14 16 17 19 20 20 20 21 21 20 20 21 22 22 23 23 24 25 25 26 27 27 25 23 23 24 21 18 16 16 14 13 13 13 12 11 10 11 11 11 10 10
19 19 19 20 20 19 19 19 19 18 18 17 17 17 17 17 17 16 15 15 16 16 16 16 16 16 16 16 17 17 17 18 18 18 17 16 15 15 15 14 14 13 14 15 16 17 18 19 20 21 21 21 21 21 22 24 24 24 25 24 23 24 24 25 25 24 21 20 21 19 16 15 14 13 12 13 12 10 9 9 10 10 9 9 10
21 21 22 22 22 21 21 21 21 20 19 18 18 18 18 17 17 17 16 16 17 17 17 17 17 17 18 18 19 19 19 18 18 18 18 17 17 17 16 16 15 16 16 17 18 18 19 20 21 21 21 21 22 22 23 24 25 25 25 23 22 23 23 22 21 20 18 17 18 17 15 14 14 13 12 12 10 8 9 10 10 10 10 10 10
24 23 23 23 24 24 23 23 22 21 20 19 20 20 19 19 18 18 17 17 18 19 19 18 18 19 19 20 20 19 19 18 19 19 19 20 20 20 20 20 20 20 20 20 20 20 20 20 20 21 21 21 22 23 23 24 24 24 23 22 21 21 20 20 18 15 15 15 15 15 13 12 13 13 12 12 9 7 8 10 9 10 11 11 11
25 24 24 24 25 25 26 25 24 23 22 22 22 22 22 21 20 19 19 19 20 21 21 21 21 21 21 21 22 22 21 21 21 21 21 21 22 22 23 23 23 23 22 22 21 21 20 20 20 21 21 22 23 24 23 23 22 22 20 19 19 19 18 17 15 11 11 11 12 13 12 12 13 13 12 11 10 7 7 8 9 9 9 10 11
23 24 25 25 25 26 27 28 27 26 26 25 24 24 23 22 21 21 21 22 22 23 24 24 24 24 24 25 25 25 25 26 25 24 23 22 22 22 22 23 23 23 22 21 21 21 20 21 21 22 22 23 23 23 23 21 19 18 17 16 16 16 16 15 12 10 9 9 10 12 12 12 13 13 12 11 10 9 7 7 10 10 10 10 11
24 23 24 25 26 26 27 29 30 29 28 28 27 26 25 24 23 23 23 23 24 24 25 25 25 25 26 27 28 28 28 28 28 27 26 24 22 21 21 21 22 22 21 20 20 20 20 21 21 22 22 22 21 21 20 17 16 16 17 16 15 15 15 14 12 10 8 8 9 11 12 12 13 13 13 11 11 11 8 9 12 13 12 11 11
27 26 25 24 24 26 27 29 30 30 30 29 28 28 27 26 26 25 25 26 26 26 26 26 26 26 26 28 29 30 30 30 29 28 27 25 23 22 22 22 21 21 20 19 18 18 19 19 19 19 19 18 17 16 15 14 14 15 15 15 15 14 13 12 12 11 9 9 11 12 13 13 13 14 15 14 12 10 8 11 15 16 13 11 10
29 29 29 26 24 25 27 28 28 29 29 29 29 29 28 28 28 28 28 28 28 28 28 27 27 27 27 28 28 29 29 28 28 27 26 25 23 22 21 20 19 19 18 18 17 17 17 17 16 15 14 12 12 12 12 12 12 12 13 14 14 14 13 13 13 12 11 12 14 15 15 16 16 15 16 17 15 12 11 14 17 17 14 11 8
Wind_Direction
146 145 141 138 136 134 133 134 136 138 143 150 154 154 155 153 148 142 136 139 142 143 136 120 106 88 77 71 65 61 62 64 64 66 68 71 75 76 78 79 79 78 77 76 73 72 69 66 63 59 55 50 45 41 34 28 23 19 14 7 1 356 353 349 346 345 343 344 344 345 347 348 351 349 351 357 350 344 345 340 342 340 331 329 331
144 141 138 137 136 136 137 138 140 142 143 146 151 155 158 156 155 153 151 154 154 151 134 114 98 86 80 70 64 63 65 64 64 70 74 74 76 78 81 81 80 79 78 76 74 73 71 68 66 61 58 52 48 43 36 30 25 20 15 9 5 2 359 355 352 351 351 352 352 354 355 356 358 355 350 351 358 14 11 4 7 358 345 339 338
143 141 140 140 141 143 144 144 146 149 147 146 147 152 157 158 158 158 163 171 174 170 142 117 100 83 77 70 64 64 63 58 55 70 78 75 74 79 83 83 82 80 78 77 75 74 73 70 67 62 58 54 50 46 41 35 29 24 21 16 13 10 6 2 359 359 358 359 358 358 0 2 4 1 360 6 19 30 29 26 23 13 2 353 348
145 143 143 143 145 147 148 149 151 154 154 153 153 157 162 164 163 166 175 183 193 199 163 123 102 79 72 70 65 63 61 54 50 64 75 72 73 79 85 84 84 83 80 77 74 73 73 71 68 63 60 57 54 50 46 42 37 32 29 25 22 19 15 10 7 7 6 5 3 2 5 7 8 7 8 17 25 31 30 25 19 12 7 359 354
149 147 145 143 145 148 150 150 151 154 157 161 163 168 171 174 183 193 209 288 297 230 159 119 101 82 70 67 66 63 58 54 52 59 63 66 79 82 82 81 81 84 83 79 74 72 72 72 71 68 64 60 56 53 49 47 46 42 38 35 31 27 23 19 16 16 14 12 9 8 10 11 11 11 14 21 26 27 25 21 15 11 9 4 360
151 148 146 147 148 149 149 149 149 153 159 165 171 175 176 182 191 197 234 291 270 218 138 117 105 94 76 60 58 56 55 60 62 64 60 62 82 85 81 78 76 77 77 79 77 74 72 72 72 71 68 64 58 55 53 53 53 51 48 43 39 34 31 27 25 24 20 18 16 14 13 12 13 14 17 21 23 23 23 20 16 14 13 9 6
151 151 151 153 152 150 151 149 151 156 160 168 175 176 176 185 189 195 219 220 227 214 136 115 110 103 89 49 35 36 48 60 65 71 64 59 70 83 82 76 74 72 70 73 77 78 76 73 71 69 68 65 62 60 58 58 56 55 53 49 44 39 35 32 30 27 23 21 20 18 16 14 14 14 17 19 19 20 22 20 17 20 21 12 7
152 155 157 156 153 153 154 153 155 157 160 166 172 176 180 190 194 197 194 172 210 212 155 117 116 112 94 58 32 27 55 65 62 69 72 65 64 72 73 67 67 70 74 73 72 74 75 75 71 66 65 63 63 63 61 59 56 53 51 48 43 39 35 32 30 26 21 19 18 16 15 14 13 13 15 16 17 17 17 17 16 17 17 9 3
156 158 158 155 154 156 156 157 161 159 159 167 174 184 191 197 205 197 172 139 197 214 186 142 124 120 109 78 43 27 55 55 49 57 70 70 63 60 57 59 64 67 74 74 67 67 67 69 71 69 67 64 64 62 61 57 52 46 43 40 37 34 30 26 26 24 19 17 15 13 10 9 8 8 10 11 13 13 10 10 9 6 4 359 358
161 161 158 157 159 160 162 164 166 164 166 175 181 190 197 206 210 184 155 143 194 214 201 177 151 139 128 95 39 351 3 8 356 7 56 55 49 48 48 55 65 67 68 65 65 65 63 63 66 70 69 66 64 61 58 51 42 36 31 30 28 26 23 19 19 20 18 16 13 11 7 4 2 0 1 3 5 6 4 1 354 352 353 350 350
162 161 162 163 163 165 169 172 174 173 174 179 185 194 204 209 198 169 148 148 188 207 199 187 178 169 162 168 253 284 305 312 283 275 354 17 20 39 56 62 69 72 69 64 63 62 61 61 60 63 63 61 59 52 47 38 29 24 21 22 24 22 20 16 13 14 15 14 11 8 5 1 358 355 353 353 355 357 356 355 349 346 348 344 346
164 165 166 167 168 170 176 180 182 183 180 176 185 196 204 201 185 165 144 144 186 211 199 185 177 178 188 211 243 265 284 282 256 264 291 289 274 243 95 87 81 78 70 58 55 54 55 54 51 52 50 47 44 35 28 20 14 11 10 13 16 17 17 15 11 10 9 8 6 4 2 358 355 352 349 347 348 348 347 347 346 345 344 341 342
168 169 170 174 175 177 181 184 186 188 185 175 180 191 194 190 183 172 144 153 183 182 178 184 182 194 221 239 241 240 258 265 262 267 274 265 254 247 223 153 97 77 56 41 34 35 39 41 40 44 44 40 33 25 18 12 6 3 2 2 6 10 11 11 9 7 4 3 2 2 360 357 354 351 348 345 343 341 339 339 339 340 340 339 338
176 172 174 180 181 183 184 186 190 193 189 179 178 183 185 189 189 178 159 166 175 151 152 177 187 207 250 266 246 234 250 255 262 274 283 286 283 275 255 231 145 81 40 26 16 15 22 28 29 28 29 30 26 22 16 11 7 2 359 356 358 3 3 2 3 2 0 359 359 360 360 358 356 354 350 347 342 338 336 335 335 335 336 338 337
181 176 178 185 187 185 183 187 193 193 187 181 180 180 184 192 192 179 170 169 172 170 170 185 187 193 277 313 305 298 273 257 269 276 281 285 282 278 269 262 249 246 329 15 9 3 2 6 15 14 9 11 14 17 15 10 7 4 1 357 359 3 1 358 358 358 356 356 358 358 358 358 358 358 356 352 346 341 338 335 334 333 333 336 336
187 186 185 189 189 182 181 188 189 183 177 175 179 182 186 191 189 181 181 171 167 175 199 217 201 193 254 329 326 321 308 295 293 285 287 284 271 270 268 261 254 247 266 0 356 348 346 344 352 357 354 354 359 9 13 8 4 4 4 4 7 7 3 360 358 356 355 356 359 358 357 357 358 359 359 356 352 347 343 339 336 333 332 334 334
197 198 189 189 190 182 184 189 185 178 173 176 183 184 187 190 188 184 186 177 163 160 176 209 200 209 253 308 316 324 330 324 312 303 313 299 264 262 267 256 247 240 255 338 342 335 335 333 335 336 337 342 346 1 10 8 4 4 9 14 12 6 1 359 358 356 357 359 0 358 356 355 355 357 358 357 356 354 350 345 340 335 332 332 333
204 202 194 192 192 188 186 184 180 180 180 186 189 186 189 193 191 183 175 172 164 151 143 145 172 205 239 277 300 346 10 8 356 331 341 336 282 271 265 251 242 239 263 304 325 329 327 327 332 327 327 333 337 358 9 11 11 10 14 14 6 359 354 352 353 356 0 2 358 354 353 353 352 353 355 356 358 359 357 352 347 342 337 333 332
205 203 198 195 197 195 191 182 181 185 185 190 191 190 193 195 193 183 159 154 165 163 156 144 143 166 182 186 327 31 43 39 38 33 27 30 4 313 271 252 252 261 277 288 301 322 326 332 342 339 338 337 337 358 8 10 12 12 10 3 356 351 347 346 350 356 359 357 352 349 347 347 347 348 350 352 356 359 359 358 353 349 344 338 334
205 202 201 199 198 198 197 189 188 189 186 190 197 197 196 198 196 188 169 152 160 180 180 180 168 159 159 143 67 53 63 52 47 50 55 63 57 43 45 17 274 283 300 305 304 310 318 331 350 354 351 339 336 1 10 6 4 3 359 354 348 346 346 346 351 355 356 351 347 346 344 342 341 343 344 344 349 353 354 356 356 354 350 345 341
207 202 205 205 198 197 201 198 198 196 191 199 206 201 200 205 204 199 191 175 171 185 187 199 202 193 205 215 260 69 79 56 46 47 52 69 65 49 58 82 90 65 10 353 336 318 316 321 338 359 355 336 334 0 4 359 356 352 347 345 344 343 345 348 354 356 353 347 345 345 344 342 339 339 339 337 342 347 347 348 352 353 353 351 348
209 206 210 210 200 198 201 203 207 207 206 214 211 203 206 212 211 212 211 199 192 196 199 214 223 219 223 228 262 299 70 51 46 42 36 45 53 31 20 21 350 343 326 324 332 334 335 326 318 335 344 343 349 353 351 348 346 342 336 339 341 341 343 349 355 355 349 346 344 346 348 346 343 340 338 337 341 345 344 342 344 347 349 351 352
212 213 213 210 205 202 203 208 214 218 222 220 211 209 213 215 217 220 220 216 212 210 213 223 231 231 223 198 48 21 32 27 25 26 17 10 4 351 342 331 320 323 318 315 324 331 337 338 332 332 334 343 352 345 342 342 345 343 338 339 340 341 345 350 352 348 346 347 347 347 348 347 343 340 341 342 342 346 345 340 340 341 343 346 349
215 216 213 210 209 208 208 209 213 222 226 217 210 216 220 217 218 219 221 221 221 222 223 225 231 231 223 195 144 41 24 15 5 6 3 351 344 339 335 333 330 329 326 321 320 319 321 325 330 334 331 319 314 331 338 341 344 345 341 339 338 340 345 346 344 345 348 349 347 345 346 346 345 349 352 347 342 346 343 338 338 338 339 340 343
218 218 214 211 213 214 215 214 213 219 224 220 218 224 224 222 219 216 218 222 226 230 232 233 234 231 225 211 194 246 333 356 349 342 348 346 339 333 332 335 333 331 330 330 329 325 320 317 316 322 320 286 276 314 330 329 331 334 333 333 334 337 340 338 337 342 346 345 343 343 344 345 349 354 356 350 345 343 338 338 338 336 336 338 339
220 219 215 213 216 219 221 220 216 217 223 226 229 232 231 229 226 220 217 223 229 233 236 238 240 238 233 225 222 240 268 300 311 312 321 325 322 320 321 325 324 325 327 331 335 333 331 331 324 316 300 268 271 297 311 316 321 323 323 325 328 331 333 332 334 339 342 341 340 340 342 345 348 348 347 346 344 336 334 337 336 334 335 338 338
224 220 217 216 218 222 225 224 222 221 225 229 232 237 237 230 228 226 225 229 232 235 238 238 240 244 242 236 236 244 255 269 282 292 298 301 305 309 315 322 323 324 326 330 339 341 338 337 330 313 293 276 279 293 304 312 316 318 320 323 327 330 333 337 342 348 350 349 347 344 341 342 341 339 339 339 336 328 328 331 331 332 336 336 337
229 223 220 222 222 223 227 227 225 226 229 230 230 235 239 234 228 227 231 235 236 237 237 236 238 242 245 245 245 248 253 258 265 275 283 289 293 299 310 324 329 329 330 333 340 347 344 338 335 326 309 300 301 305 310 314 316 320 327 333 336 341 347 352 356 356 354 353 354 351 344 340 338 338 339 335 327 320 321 325 326 329 331 331 332
230 226 224 226 225 224 228 229 227 228 231 232 229 231 238 240 234 231 234 237 239 241 237 236 238 240 243 247 247 248 250 251 257 265 275 284 288 293 305 322 331 330 332 334 336 343 347 346 346 344 339 335 329 324 323 323 326 331 338 342 342 346 352 352 348 343 344 347 350 349 346 344 341 339 339 331 318 312 312 316 321 325 327 328 329
229 228 227 227 226 225 228 229 227 225 228 230 230 231 238 241 236 233 235 239 242 241 239 239 241 240 241 244 244 245 248 249 252 256 263 275 282 285 292 303 314 319 324 326 327 334 339 343 349 348 347 352 343 334 335 333 332 332 333 333 333 337 339 337 334 332 336 341 341 341 341 342 340 338 337 330 318 311 307 310 316 323 329 335 338
228 227 226 226 227 226 227 230 229 226 228 231 234 236 240 241 239 236 237 242 243 238 238 242 241 241 241 241 245 249 253 255 255 259 260 261 270 277 282 290 301 309 313 312 314 326 333 337 345 346 341 348 347 338 334 330 327 325 328 330 330 331 332 330 328 327 330 334 334 335 337 338 338 336 335 331 325 320 318 320 326 333 339 344 347
226 226 227 227 229 229 229 231 231 231 233 235 238 242 244 244 243 241 241 246 247 242 243 247 247 248 246 246 250 256 262 263 262 266 265 261 264 269 272 280 293 301 301 299 306 318 331 337 340 338 333 342 350 344 335 329 327 322 327 335 335 332 330 328 326 325 325 327 329 332 334 336 337 336 334 332 330 330 333 337 346 358 350 341 340
225 226 228 228 229 232 232 231 232 234 236 238 241 245 247 246 242 241 242 247 249 250 253 257 259 260 257 253 256 263 271 271 268 267 265 264 266 265 266 272 282 291 291 294 303 313 326 335 335 331 333 341 348 346 339 331 326 317 320 334 339 337 334 330 326 322 320 323 328 332 335 337 338 338 337 335 334 338 343 349 0 2 347 334 334
224 227 230 230 231 233 234 234 234 235 235 237 240 244 246 245 243 241 241 245 249 253 255 256 257 259 261 261 263 268 271 269 264 258 255 258 263 264 264 267 272 281 290 294 301 309 320 328 330 333 338 341 345 346 339 331 325 317 315 323 329 332 332 328 324 322 323 327 332 337 339 340 341 342 340 336 338 343 346 350 350 350 345 338 338
223 225 228 230 233 236 237 237 237 237 237 236 237 240 242 243 243 242 242 246 249 249 247 244 244 251 258 261 264 264 262 261 257 255 257 258 261 267 266 264 269 276 287 296 303 311 316 322 327 332 334 337 342 342 335 328 323 318 316 316 318 322 325 326 327 329 331 333 337 342 343 343 344 344 339 335 337 339 340 340 340 341 342 340 341
225 225 227 230 231 234 236 237 239 241 239 236 236 239 239 238 240 242 243 246 247 246 246 247 250 254 257 259 265 264 261 261 259 257 267 273 272 272 265 262 271 281 292 303 309 312 316 322 326 327 329 331 334 334 328 322 319 316 316 316 318 321 325 330 335 337 338 337 340 344 344 344 345 340 331 332 334 332 330 328 331 333 332 331 335
225 226 228 230 230 229 231 235 240 243 241 237 236 238 238 237 239 242 243 244 246 246 248 252 254 256 261 264 265 261 253 248 250 270 292 298 289 275 267 266 272 282 295 306 311 314 317 322 323 323 324 323 323 325 322 319 318 320 321 321 324 327 329 334 338 339 339 337 339 345 344 342 344 334 321 325 325 323 321 319 321 323 322 324 328
224 224 226 230 231 230 232 232 233 238 240 238 235 234 234 234 238 242 241 241 245 246 248 250 249 251 258 254 236 231 237 245 271 292 296 295 286 273 268 270 271 275 286 295 304 311 315 317 317 317 317 316 316 319 319 318 320 324 327 328 330 332 333 335 336 338 340 337 337 345 345 343 343 332 314 313 314 313 312 312 313 314 316 322 325
223 224 227 230 231 232 234 230 225 227 233 237 237 234 232 233 238 241 241 240 240 242 247 250 252 251 245 225 212 223 249 269 284 293 293 289 282 271 265 265 268 272 279 287 297 307 311 312 312 312 313 314 316 317 319 321 321 324 328 329 331 334 335 334 334 336 339 335 336 345 347 344 344 334 313 306 307 307 306 306 309 312 315 320 322
225 228 231 233 232 232 232 229 224 223 228 235 238 237 236 237 240 244 246 244 240 239 243 248 251 246 231 218 222 238 257 269 277 281 282 281 276 268 262 265 269 272 275 282 288 296 301 304 306 309 311 315 318 320 321 325 325 326 328 329 330 331 331 331 332 335 336 333 335 345 348 343 344 342 328 321 320 316 313 313 315 316 319 324 323
229 231 235 235 234 233 233 230 227 226 231 237 241 243 245 244 246 248 250 249 245 241 242 245 245 239 231 230 235 244 256 265 269 272 276 278 276 272 269 272 273 269 268 272 277 284 290 295 300 305 308 313 320 321 320 324 326 327 327 326 326 326 325 325 329 335 337 332 334 345 349 343 343 347 342 339 337 332 330 326 324 325 329 332 330
229 229 234 237 236 236 236 236 234 232 234 240 245 249 251 248 247 248 248 249 249 247 246 248 248 243 239 238 240 246 256 263 267 272 277 280 278 276 276 277 275 270 266 267 271 278 283 287 294 301 305 309 314 315 315 319 323 324 323 322 322 322 322 323 326 335 338 332 333 345 352 343 340 345 346 344 343 343 345 341 337 338 339 337 333
229 231 235 238 239 239 241 241 242 241 242 244 247 249 251 249 245 244 246 247 247 247 249 248 248 248 247 246 248 252 258 264 268 271 274 275 273 273 276 279 279 275 272 273 275 278 281 284 291 298 302 304 307 309 311 315 319 320 320 320 319 320 323 324 327 334 338 333 333 345 351 342 340 346 347 347 351 356 359 354 346 345 343 339 336
237 241 242 242 242 243 244 246 246 246 246 247 248 247 248 247 244 244 246 246 246 245 245 246 244 245 248 252 256 259 262 265 268 269 271 272 272 274 277 279 280 279 279 280 281 282 284 287 291 294 296 299 302 305 308 312 316 317 317 318 318 319 321 324 327 333 336 333 334 342 346 340 340 347 351 354 1 8 4 354 348 346 342 339 337
243 248 248 246 245 245 247 248 248 247 246 246 245 243 243 244 244 244 246 247 246 243 241 243 243 242 245 251 257 262 265 265 264 266 269 272 274 276 277 278 279 281 283 283 284 286 289 290 290 290 292 295 298 302 306 310 313 314 314 315 316 317 318 321 328 333 333 330 330 335 339 337 338 345 352 357 4 11 7 1 356 349 345 341 339
244 247 249 248 247 247 247 247 246 244 243 243 241 241 242 243 243 245 248 250 248 244 241 242 244 244 247 251 256 261 264 264 264 267 271 272 272 273 274 276 278 281 283 285 287 289 290 290 289 289 290 293 296 300 304 306 307 309 310 311 312 313 315 321 331 333 326 321 323 327 331 334 335 341 348 353 357 4 8 8 2 353 350 348 347
246 248 250 251 250 248 246 245 243 241 241 243 244 244 245 245 245 247 250 252 251 248 245 245 246 249 251 253 256 260 263 266 269 273 277 277 274 271 271 273 276 279 283 286 288 289 288 287 288 288 289 292 295 298 301 302 303 304 305 305 307 309 314 322 330 325 312 311 314 318 325 332 333 335 341 348 349 347 357 7 3 354 348 344 344
250 252 253 254 254 250 246 243 241 242 243 244 246 248 249 249 249 250 251 253 253 251 249 249 250 252 255 256 258 260 263 268 272 275 280 282 279 275 273 274 277 281 284 287 288 288 287 286 286 288 290 292 295 297 298 299 299 299 300 300 303 307 312 319 321 313 307 306 303 309 323 334 334 330 331 342 344 335 339 357 356 349 341 334 333
252 252 252 253 254 253 248 243 242 243 245 245 246 248 249 249 251 251 252 253 254 253 253 253 253 256 258 258 259 260 263 267 270 273 277 279 279 276 275 277 279 282 283 285 286 285 285 285 285 288 290 292 293 294 295 295 296 297 298 300 303 308 313 315 313 312 315 307 296 306 322 330 331 325 322 330 335 326 324 340 343 341 336 326 320
248 248 247 246 248 250 247 243 242 243 243 243 244 246 249 250 251 251 251 252 253 254 255 256 257 258 259 259 259 261 263 265 268 270 273 275 275 275 276 277 278 279 280 280 280 279 279 281 283 285 286 287 288 290 291 292 295 297 300 304 309 315 316 313 311 312 312 300 297 310 318 319 321 320 316 320 326 325 329 341 343 341 336 324 312
247 249 248 245 244 245 244 241 240 240 241 242 244 246 249 251 252 253 253 253 253 254 255 256 257 257 258 259 260 260 262 264 266 269 272 274 274 275 276 276 276 277 276 274 272 270 272 274 276 277 276 276 279 284 287 289 293 297 301 307 313 316 315 311 310 311 308 302 305 313 315 312 314 318 317 319 323 325 329 339 344 343 337 328 315